Location: Gungolding
(48.9246°N, 11.3502°E)
Time: 01:21:55
(UTC+02:00)

deb Explorer IX - Visible Passes

Search period start: 06 April 2020 00:00
Search period end: 16 April 2020 00:00
Orbit: 547 x 1100 km, 38.8° (Epoch: 05 April)

Date Brightness Start Highest point End Pass type
(mag) Time Alt. Az. Time Alt. Az. Time Alt. Az.
06 Apr ? 21:44:33 10° WSW 21:48:26 21° SSW 21:50:00 19° S visible
07 Apr ? 21:22:17 10° WSW 21:25:58 20° SSW 21:28:41 15° SSE visible
08 Apr ? 21:00:03 10° WSW 21:03:31 19° SSW 21:07:20 10° SSE visible
09 Apr ? 20:37:49 10° WSW 20:41:05 18° SSW 20:44:38 10° SSE visible
